• In Deutschland
  • Länderverzeichnis
  • Für 7 Tage
  • Wassertemperatur
  • Satellitenkarten
  • Wetterkarte
  • Widgets
  • user-avatar
    Anmelden

    Stündliche Wetter Sankt Pölten

    Heute, 24 Juni, Samstag

    Zeit Temperatur Niederschläge Wind Luftdruck Luftfeuchtigkeit
    00:00 +20°C° 0 mm 2 m/S 737 mmHg 91%
    01:00 +19°C° 0 mm 1 m/S 736 mmHg 94%
    02:00 +19°C° 0 mm 1 m/S 736 mmHg 94%
    03:00 +19°C° 0 mm 1 m/S 736 mmHg 94%
    04:00 +19°C° 0 mm 1 m/S 736 mmHg 94%
    05:00 +20°C° 0 mm 2 m/S 737 mmHg 89%
    06:00 +21°C° 0 mm 3 m/S 737 mmHg 84%
    07:00 +24°C° 0 mm 2 m/S 737 mmHg 78%
    08:00 +25°C° 0,1 mm 3 m/S 737 mmHg 72%
    09:00 +27°C° 0,1 mm 4 m/S 737 mmHg 65%
    10:00 +28°C° 0,1 mm 5 m/S 737 mmHg 59%
    11:00 +29°C° 0,1 mm 5 m/S 737 mmHg 57%
    12:00 +29°C° 0,1 mm 5 m/S 736 mmHg 56%
    13:00 +30°C° 0,1 mm 5 m/S 736 mmHg 54%
    14:00 +30°C° 0,2 mm 5 m/S 736 mmHg 56%
    15:00 +30°C° 0,2 mm 4 m/S 736 mmHg 57%
    16:00 +30°C° 0,2 mm 4 m/S 735 mmHg 59%
    17:00 +28°C° 0,3 mm 3 m/S 735 mmHg 67%
    18:00 +27°C° 0,3 mm 2 m/S 735 mmHg 75%
    19:00 +25°C° 0,3 mm 2 m/S 735 mmHg 84%
    20:00 +24°C° 0,3 mm 2 m/S 735 mmHg 87%
    21:00 +23°C° 0,3 mm 2 m/S 736 mmHg 90%
    22:00 +20°C° 0,3 mm 2 m/S 736 mmHg 93%
    23:00 +20°C° 0,2 mm 1 m/S 736 mmHg 94%

    Morgen, 25 Juni, Sonntag

    Zeit Temperatur Niederschläge Wind Luftdruck Luftfeuchtigkeit
    00:00 +20°C° 0,2 mm 1 m/S 736 mmHg 94%
    01:00 +19°C° 0,2 mm 1 m/S 736 mmHg 95%
    02:00 +18°C° 0,3 mm 1 m/S 735 mmHg 95%
    03:00 +18°C° 0,3 mm 1 m/S 735 mmHg 95%
    04:00 +16°C° 0,3 mm 1 m/S 735 mmHg 95%
    05:00 +19°C° 0 mm 1 m/S 735 mmHg 90%
    06:00 +21°C° 0 mm 1 m/S 735 mmHg 86%
    07:00 +23°C° 0 mm 1 m/S 735 mmHg 81%
    08:00 +24°C° 0,2 mm 1 m/S 735 mmHg 76%
    09:00 +25°C° 0,2 mm 1 m/S 735 mmHg 71%
    10:00 +27°C° 0,2 mm 2 m/S 735 mmHg 65%
    11:00 +25°C° 2,4 mm 2 m/S 735 mmHg 73%
    12:00 +24°C° 2,4 mm 2 m/S 735 mmHg 80%
    13:00 +23°C° 2,4 mm 2 m/S 734 mmHg 88%
    14:00 +21°C° 3,2 mm 3 m/S 734 mmHg 90%
    15:00 +20°C° 3,2 mm 3 m/S 734 mmHg 93%
    16:00 +19°C° 3,2 mm 3 m/S 734 mmHg 95%
    17:00 +19°C° 0,7 mm 3 m/S 734 mmHg 95%
    18:00 +19°C° 0,7 mm 3 m/S 734 mmHg 95%
    19:00 +19°C° 0,7 mm 2 m/S 735 mmHg 95%
    20:00 +18°C° 0 mm 2 m/S 735 mmHg 95%
    21:00 +18°C° 0 mm 3 m/S 735 mmHg 95%
    22:00 +17°C° 0 mm 3 m/S 735 mmHg 95%
    23:00 +17°C° 0 mm 3 m/S 735 mmHg 95%

    übermorgen, 26 Juni, Montag

    Zeit Temperatur Niederschläge Wind Luftdruck Luftfeuchtigkeit
    00:00 +16°C° 0 mm 3 m/S 735 mmHg 94%
    01:00 +16°C° 0 mm 3 m/S 735 mmHg 94%
    02:00 +16°C° 0 mm 3 m/S 735 mmHg 94%
    03:00 +16°C° 0 mm 2 m/S 734 mmHg 94%
    04:00 +16°C° 0 mm 2 m/S 734 mmHg 93%
    05:00 +17°C° 0 mm 3 m/S 735 mmHg 89%
    06:00 +19°C° 0 mm 3 m/S 735 mmHg 86%
    07:00 +20°C° 0 mm 3 m/S 735 mmHg 82%
    08:00 +22°C° 0 mm 3 m/S 735 mmHg 74%
    09:00 +23°C° 0 mm 4 m/S 735 mmHg 67%
    10:00 +26°C° 0 mm 4 m/S 735 mmHg 60%
    11:00 +26°C° 0 mm 3 m/S 735 mmHg 58%
    12:00 +27°C° 0 mm 3 m/S 735 mmHg 55%
    13:00 +28°C° 0 mm 3 m/S 735 mmHg 53%
    14:00 +28°C° 0 mm 3 m/S 734 mmHg 54%
    15:00 +28°C° 0 mm 2 m/S 734 mmHg 55%
    16:00 +28°C° 0 mm 2 m/S 734 mmHg 56%
    17:00 +27°C° 0 mm 2 m/S 734 mmHg 64%
    18:00 +26°C° 0 mm 1 m/S 734 mmHg 73%
    19:00 +24°C° 0 mm 1 m/S 734 mmHg 82%
    20:00 +22°C° 0 mm 1 m/S 734 mmHg 86%
    21:00 +20°C° 0 mm 1 m/S 734 mmHg 89%
    22:00 +18°C° 0 mm 1 m/S 734 mmHg 93%
    23:00 +18°C° 0 mm 1 m/S 734 mmHg 94%

    27 Juni, Dienstag

    Zeit Temperatur Niederschläge Wind Luftdruck Luftfeuchtigkeit
    00:00 +16°C° 0 mm 1 m/S 734 mmHg 95%
    01:00 +16°C° 0 mm 1 m/S 734 mmHg 95%
    02:00 +16°C° 0 mm 1 m/S 734 mmHg 96%
    03:00 +16°C° 0 mm 1 m/S 733 mmHg 96%
    04:00 +16°C° 0 mm 1 m/S 733 mmHg 96%
    05:00 +19°C° 0 mm 1 m/S 733 mmHg 92%
    06:00 +20°C° 0 mm 1 m/S 733 mmHg 87%
    07:00 +21°C° 0 mm 2 m/S 733 mmHg 82%
    08:00 +23°C° 0 mm 2 m/S 733 mmHg 77%
    09:00 +25°C° 0 mm 2 m/S 733 mmHg 72%
    10:00 +26°C° 0 mm 2 m/S 733 mmHg 67%
    11:00 +27°C° 0,5 mm 2 m/S 733 mmHg 66%
    12:00 +28°C° 0,5 mm 2 m/S 733 mmHg 66%
    13:00 +29°C° 0,5 mm 2 m/S 732 mmHg 65%
    14:00 +29°C° 0,9 mm 2 m/S 732 mmHg 65%
    15:00 +29°C° 0,9 mm 1 m/S 732 mmHg 65%
    16:00 +29°C° 0,9 mm 1 m/S 731 mmHg 66%
    17:00 +28°C° 0,4 mm 1 m/S 731 mmHg 72%
    18:00 +27°C° 0,4 mm 1 m/S 731 mmHg 79%
    19:00 +26°C° 0,4 mm 1 m/S 731 mmHg 85%
    20:00 +24°C° 0,1 mm 1 m/S 731 mmHg 87%
    21:00 +22°C° 0,1 mm 1 m/S 731 mmHg 89%
    22:00 +19°C° 0,1 mm 1 m/S 731 mmHg 91%
    23:00 +19°C° 0 mm 1 m/S 731 mmHg 91%

    28 Juni, Mittwoch

    Zeit Temperatur Niederschläge Wind Luftdruck Luftfeuchtigkeit
    00:00 +19°C° 0 mm 1 m/S 731 mmHg 91%
    01:00 +19°C° 0 mm 1 m/S 731 mmHg 91%
    02:00 +19°C° 0 mm 1 m/S 731 mmHg 91%
    03:00 +18°C° 0 mm 1 m/S 730 mmHg 91%
    04:00 +18°C° 0 mm 1 m/S 730 mmHg 91%
    05:00 +20°C° 0 mm 1 m/S 730 mmHg 85%
    06:00 +23°C° 0 mm 1 m/S 731 mmHg 80%
    07:00 +23°C° 0 mm 0 m/S 731 mmHg 74%
    08:00 +27°C° 0 mm 1 m/S 731 mmHg 67%
    09:00 +29°C° 0 mm 2 m/S 731 mmHg 60%
    10:00 +30°C° 0 mm 2 m/S 731 mmHg 53%
    11:00 +31°C° 0 mm 3 m/S 730 mmHg 51%
    12:00 +33°C° 0 mm 3 m/S 730 mmHg 49%
    13:00 +34°C° 0 mm 4 m/S 730 mmHg 47%
    14:00 +34°C° 0,2 mm 3 m/S 729 mmHg 48%
    15:00 +34°C° 0,2 mm 3 m/S 729 mmHg 50%
    16:00 +34°C° 0,2 mm 2 m/S 729 mmHg 51%
    17:00 +31°C° 0,1 mm 2 m/S 728 mmHg 59%
    18:00 +30°C° 0,1 mm 2 m/S 728 mmHg 68%
    19:00 +28°C° 0,1 mm 2 m/S 728 mmHg 76%
    20:00 +26°C° 0 mm 1 m/S 728 mmHg 79%
    21:00 +25°C° 0 mm 1 m/S 728 mmHg 82%
    22:00 +23°C° 0 mm 1 m/S 728 mmHg 85%
    23:00 +23°C° 0 mm 1 m/S 728 mmHg 84%

    29 Juni, Donnerstag

    Zeit Temperatur Niederschläge Wind Luftdruck Luftfeuchtigkeit
    00:00 +22°C° 0 mm 1 m/S 728 mmHg 83%
    01:00 +22°C° 0 mm 1 m/S 729 mmHg 82%
    02:00 +22°C° 0 mm 1 m/S 728 mmHg 82%
    03:00 +22°C° 0 mm 1 m/S 728 mmHg 81%
    04:00 +21°C° 0 mm 1 m/S 728 mmHg 81%
    05:00 +23°C° 0 mm 1 m/S 729 mmHg 77%
    06:00 +25°C° 0 mm 1 m/S 729 mmHg 72%
    07:00 +27°C° 0 mm 1 m/S 729 mmHg 68%
    08:00 +28°C° 0 mm 1 m/S 730 mmHg 64%
    09:00 +30°C° 0 mm 1 m/S 730 mmHg 59%
    10:00 +31°C° 0 mm 2 m/S 730 mmHg 54%
    11:00 +32°C° 0 mm 2 m/S 729 mmHg 48%
    12:00 +35°C° 0 mm 3 m/S 729 mmHg 43%
    13:00 +36°C° 0 mm 4 m/S 729 mmHg 37%
    14:00 +36°C° 0 mm 4 m/S 728 mmHg 37%
    15:00 +37°C° 0 mm 4 m/S 728 mmHg 36%
    16:00 +37°C° 0 mm 4 m/S 728 mmHg 36%
    17:00 +35°C° 0 mm 4 m/S 728 mmHg 42%
    18:00 +33°C° 0 mm 4 m/S 727 mmHg 49%
    19:00 +30°C° 0 mm 3 m/S 727 mmHg 55%
    20:00 +28°C° 0 mm 3 m/S 727 mmHg 58%
    21:00 +27°C° 0 mm 3 m/S 728 mmHg 60%
    22:00 +26°C° 0 mm 3 m/S 728 mmHg 63%
    23:00 +25°C° 0 mm 3 m/S 728 mmHg 64%
    Mehr zeigen